[sarex] 2 Line ISS Keps 9-28

Dave Larsen PhD doc at volcano.net
Wed Sep 27 20:18:31 PDT 2006


ISS
1 25544U 98067A   06270.97453704  .00011852  00000-0  77603-4 0  7547
2 25544 051.6383 017.9684 0012959 033.4192 121.5807 15.76221155449377


More information about the SAREX mailing list